User: anonymous   Login
Location: ????
(33.1659°N, 35.6604°E)
Time: 07:31:30
(UTC+00:00)
Language:

Cosmos 1624 Rocket - Orbit

View from above orbital plane
View from above orbital plane
View from above satellite
View from above satellite

Ground track
Ground track

The orbit data is extracted from the following two-line orbital elements,

1 15483U 85006B   19321.88857358 +.00000061 +00000-0 +29906-4 0  9995
2 15483 074.0444 173.3204 0019771 295.0864 165.8008 14.36290186823141
Epoch (UTC): 17 November 2019 21:19:32
Eccentricity: 0.0019771
inclination: 74.0444°
perigee height: 756 km
apogee height: 785 km
right ascension of ascending node: 173.3204°
argument of perigee: 295.0864°
revolutions per day: 14.36290186
mean anomaly at epoch: 165.8008°
orbit number at epoch: 82314

The dashed part of the orbit path shows where the satellite is in the earth's shadow,  

DLR